GFSCGP_prec_pwat_057.txt.gz
Precipitable_Water
0.26 0.19 0.14 0.26 0.38 0.45 0.54 0.54 0.57 0.66 0.50 0.50 0.39 0.36 0.53 0.75 0.83 0.92 1.18 1.32 1.15 1.15 1.33 1.35 1.35 1.50 1.60 1.48 1.56 1.62 1.70 1.75 1.73 1.63 1.53 1.39 1.29 1.53 1.69 1.84 1.95 1.93 2.02 1.97
0.22 0.19 0.19 0.21 0.32 0.39 0.52 0.54 0.58 0.63 0.60 0.58 0.39 0.35 0.46 0.74 0.83 1.00 1.11 1.08 0.79 1.01 1.24 1.32 1.42 1.50 1.58 1.49 1.52 1.64 1.77 1.84 1.77 1.69 1.61 1.48 1.35 1.39 1.52 1.61 1.81 1.90 1.93 2.05
0.18 0.20 0.24 0.22 0.22 0.30 0.38 0.50 0.54 0.49 0.64 0.59 0.43 0.29 0.50 0.70 0.68 0.78 0.99 1.03 0.89 1.03 1.18 1.28 1.33 1.51 1.57 1.57 1.52 1.72 1.85 1.85 1.82 1.80 1.67 1.52 1.41 1.37 1.44 1.62 1.74 1.88 1.89 1.88
0.19 0.22 0.23 0.22 0.21 0.28 0.27 0.43 0.50 0.43 0.50 0.41 0.41 0.26 0.42 0.50 0.56 0.66 0.94 0.98 0.95 1.03 1.32 1.39 1.33 1.50 1.53 1.55 1.72 1.81 1.83 1.84 1.83 1.82 1.59 1.39 1.28 1.23 1.46 1.61 1.75 1.78 1.83 1.75
0.19 0.20 0.21 0.20 0.20 0.23 0.23 0.37 0.35 0.32 0.31 0.30 0.29 0.27 0.39 0.50 0.47 0.52 0.64 0.70 1.12 1.21 1.34 1.35 1.29 1.50 1.52 1.60 1.72 1.77 1.80 1.82 1.83 1.86 1.67 1.54 1.41 1.47 1.57 1.69 1.70 1.68 1.69 1.73
0.23 0.23 0.23 0.20 0.20 0.20 0.22 0.24 0.29 0.29 0.30 0.21 0.26 0.28 0.31 0.41 0.46 0.51 0.67 0.74 1.07 1.30 1.36 1.38 1.41 1.50 1.46 1.63 1.78 1.91 1.81 1.77 1.84 1.84 1.75 1.60 1.52 1.59 1.63 1.70 1.65 1.71 1.68 1.72
0.22 0.23 0.24 0.24 0.18 0.18 0.19 0.21 0.17 0.17 0.19 0.17 0.32 0.29 0.37 0.52 0.61 0.64 0.78 0.85 1.05 1.31 1.36 1.46 1.51 1.36 1.42 1.59 1.78 1.91 1.84 1.71 1.77 1.81 1.69 1.69 1.71 1.72 1.68 1.70 1.80 1.71 1.65 1.62
0.20 0.15 0.22 0.21 0.18 0.15 0.16 0.17 0.16 0.16 0.22 0.29 0.35 0.33 0.40 0.63 0.75 0.81 0.80 0.81 1.01 1.38 1.29 1.04 1.36 1.45 1.47 1.65 1.77 1.88 1.86 1.73 1.73 1.74 1.71 1.65 1.80 1.81 1.77 1.70 1.83 1.78 1.65 1.49
0.21 0.22 0.31 0.30 0.23 0.20 0.20 0.22 0.21 0.22 0.26 0.26 0.32 0.41 0.51 0.56 0.71 0.71 0.60 0.81 1.01 1.35 1.31 1.18 1.63 1.56 1.65 1.66 1.70 1.76 1.73 1.73 1.72 1.76 1.70 1.72 1.81 1.79 1.76 1.86 1.88 1.75 1.66 1.46
0.21 0.21 0.29 0.34 0.26 0.24 0.19 0.27 0.24 0.26 0.19 0.20 0.30 0.37 0.39 0.53 0.70 0.82 0.97 0.95 1.02 1.30 1.50 1.63 1.58 1.51 1.54 1.49 1.53 1.74 1.76 1.74 1.73 1.67 1.69 1.72 1.71 1.69 1.89 1.77 1.76 1.77 1.57 1.41
0.26 0.25 0.27 0.34 0.27 0.24 0.22 0.21 0.26 0.32 0.37 0.22 0.26 0.32 0.52 0.58 0.64 0.70 0.87 1.26 1.15 1.22 1.31 1.41 1.45 1.47 1.50 1.53 1.61 1.74 1.81 1.73 1.55 1.61 1.63 1.63 1.73 1.60 1.80 1.78 1.80 1.58 1.47 1.43
0.26 0.28 0.25 0.29 0.35 0.33 0.28 0.27 0.29 0.25 0.29 0.37 0.35 0.29 0.57 0.72 0.68 0.70 1.06 1.56 1.10 1.00 1.14 1.25 1.39 1.37 1.50 1.71 1.65 1.73 1.74 1.68 1.50 1.60 1.59 1.52 1.53 1.52 1.67 1.68 1.54 1.48 1.42 1.42
0.30 0.30 0.22 0.23 0.29 0.36 0.29 0.30 0.29 0.30 0.30 0.24 0.25 0.28 0.70 0.77 0.81 0.80 0.99 1.35 1.19 1.21 1.33 1.39 1.47 1.42 1.53 1.55 1.60 1.78 1.89 1.60 1.49 1.52 1.40 1.34 1.51 1.58 1.53 1.46 1.45 1.49 1.44 1.37
0.31 0.28 0.28 0.20 0.26 0.37 0.41 0.39 0.32 0.33 0.30 0.33 0.31 0.39 0.66 0.82 0.74 0.79 1.03 1.23 1.16 1.27 1.35 1.40 1.48 1.44 1.54 1.57 1.59 1.67 1.73 1.59 1.43 1.42 1.29 1.35 1.54 1.60 1.55 1.46 1.43 1.40 1.38 1.30
0.32 0.24 0.26 0.29 0.29 0.34 0.35 0.39 0.39 0.35 0.36 0.32 0.38 0.42 0.68 0.83 0.84 1.24 1.02 0.92 0.95 1.18 1.43 1.32 1.35 1.38 1.46 1.52 1.66 1.57 1.51 1.45 1.39 1.30 1.37 1.44 1.54 1.66 1.64 1.63 1.55 1.53 1.51 1.45
0.44 0.27 0.26 0.24 0.28 0.31 0.31 0.32 0.36 0.41 0.43 0.43 0.48 0.46 0.65 0.77 0.72 0.68 0.68 0.79 0.94 1.16 1.25 1.36 1.37 1.34 1.36 1.46 1.44 1.52 1.43 1.35 1.34 1.37 1.41 1.46 1.55 1.55 1.62 1.66 1.63 1.63 1.61 1.56
0.54 0.38 0.29 0.22 0.27 0.29 0.28 0.32 0.33 0.34 0.41 0.42 0.44 0.50 0.62 0.58 0.58 0.57 0.67 0.83 0.90 1.12 1.18 1.21 1.27 1.28 1.35 1.44 1.46 1.45 1.48 1.37 1.32 1.37 1.39 1.43 1.48 1.48 1.60 1.71 1.72 1.70 1.70 1.69
0.53 0.51 0.42 0.29 0.27 0.20 0.28 0.35 0.38 0.37 0.38 0.37 0.46 0.58 0.59 0.65 0.63 0.71 0.84 0.91 0.90 0.94 1.06 1.19 1.31 1.40 1.46 1.46 1.47 1.51 1.53 1.44 1.34 1.39 1.39 1.42 1.43 1.46 1.51 1.57 1.61 1.65 1.71 1.77
0.50 0.56 0.46 0.39 0.29 0.32 0.34 0.32 0.43 0.40 0.32 0.43 0.47 0.64 0.69 0.68 0.85 0.99 1.14 1.14 1.08 1.06 1.09 1.24 1.39 1.44 1.45 1.40 1.43 1.45 1.53 1.50 1.41 1.37 1.37 1.43 1.43 1.45 1.49 1.41 1.51 1.59 1.63 1.65
0.46 0.48 0.46 0.45 0.39 0.32 0.38 0.49 0.63 0.51 0.36 0.64 0.59 0.60 0.71 0.77 0.55 0.73 1.08 1.12 1.10 1.18 1.15 1.14 1.35 1.40 1.40 1.45 1.50 1.47 1.52 1.46 1.42 1.44 1.39 1.49 1.56 1.50 1.44 1.44 1.46 1.60 1.62 1.63
0.31 0.35 0.37 0.40 0.34 0.37 0.62 0.70 0.64 0.38 0.63 0.89 0.99 1.02 0.85 0.70 0.69 0.95 1.12 1.14 1.17 1.02 0.97 1.14 1.22 1.20 1.33 1.44 1.52 1.44 1.47 1.43 1.50 1.50 1.45 1.53 1.59 1.61 1.59 1.51 1.53 1.61 1.60 1.60
0.51 0.47 0.38 0.39 0.37 0.36 0.76 0.76 0.56 0.88 1.05 1.05 0.97 0.98 1.12 1.15 1.22 1.20 1.12 1.03 1.01 1.01 1.06 1.10 1.12 1.21 1.35 1.48 1.52 1.45 1.48 1.60 1.61 1.49 1.43 1.50 1.56 1.63 1.67 1.62 1.61 1.55 1.59 1.51
0.54 0.62 0.56 0.59 0.58 0.80 0.89 0.95 1.01 1.10 1.05 1.09 1.22 1.18 1.27 1.26 1.34 1.30 1.26 1.13 1.12 1.05 1.05 1.11 1.16 1.23 1.37 1.49 1.53 1.45 1.56 1.69 1.69 1.61 1.56 1.62 1.63 1.61 1.62 1.59 1.58 1.59 1.58 1.50
0.72 0.77 0.66 0.66 0.79 0.86 0.87 1.04 1.04 1.09 1.05 1.16 1.15 1.18 1.31 1.28 1.57 1.33 1.14 1.05 1.05 1.05 1.03 1.08 1.09 1.14 1.30 1.47 1.51 1.50 1.55 1.58 1.55 1.48 1.48 1.53 1.51 1.52 1.55 1.57 1.61 1.60 1.58 1.52
0.67 0.70 0.68 0.66 0.85 0.89 0.94 0.99 1.11 1.11 1.12 1.07 1.16 1.17 1.21 1.25 1.37 1.17 1.11 1.11 1.05 1.07 1.11 1.11 1.08 1.11 1.19 1.36 1.40 1.46 1.46 1.45 1.37 1.37 1.35 1.32 1.32 1.37 1.41 1.45 1.48 1.52 1.59 1.61
0.74 0.66 0.59 0.55 0.80 0.87 0.95 1.02 1.06 1.10 1.11 1.13 0.98 1.29 1.51 1.58 1.33 1.28 1.21 1.21 1.09 1.04 1.08 1.09 1.08 1.10 1.10 1.19 1.23 1.27 1.28 1.26 1.21 1.20 1.23 1.25 1.26 1.28 1.29 1.27 1.28 1.39 1.46 1.53

GFSCGP_prec_pwat_060.txt.gz
Precipitable_Water
0.24 0.19 0.14 0.22 0.40 0.41 0.45 0.43 0.45 0.48 0.62 0.55 0.52 0.45 0.50 0.60 0.74 0.83 0.94 0.92 0.76 0.85 1.28 1.33 1.44 1.46 1.49 1.46 1.50 1.65 1.77 1.84 1.79 1.72 1.62 1.43 1.25 1.44 1.61 1.77 1.87 1.96 2.02 2.03
0.20 0.15 0.18 0.23 0.38 0.36 0.35 0.41 0.43 0.48 0.55 0.51 0.45 0.39 0.48 0.55 0.65 0.82 0.85 0.89 0.94 0.94 1.25 1.31 1.34 1.46 1.51 1.51 1.54 1.68 1.79 1.78 1.76 1.80 1.71 1.55 1.36 1.35 1.47 1.62 1.79 1.89 1.90 1.97
0.16 0.17 0.22 0.21 0.29 0.32 0.29 0.32 0.37 0.46 0.53 0.54 0.47 0.37 0.42 0.53 0.70 0.80 0.83 0.96 1.03 1.05 1.20 1.30 1.25 1.37 1.51 1.54 1.61 1.61 1.81 1.79 1.80 1.85 1.80 1.60 1.48 1.35 1.39 1.63 1.74 1.85 1.92 1.94
0.20 0.22 0.22 0.21 0.21 0.23 0.23 0.34 0.37 0.46 0.47 0.38 0.48 0.32 0.42 0.54 0.63 0.70 0.69 0.87 1.04 1.11 1.22 1.41 1.25 1.32 1.52 1.54 1.77 1.75 1.94 1.86 1.85 1.90 1.75 1.55 1.36 1.24 1.41 1.57 1.75 1.80 1.89 1.86
0.18 0.21 0.22 0.22 0.20 0.23 0.25 0.29 0.37 0.39 0.33 0.38 0.34 0.33 0.37 0.51 0.51 0.58 0.59 0.80 1.05 1.08 1.15 1.34 1.21 1.30 1.66 1.64 1.75 1.90 1.97 1.87 1.83 1.84 1.78 1.56 1.45 1.52 1.59 1.67 1.68 1.76 1.80 1.81
0.20 0.24 0.26 0.23 0.24 0.23 0.23 0.25 0.28 0.33 0.31 0.24 0.31 0.31 0.28 0.36 0.39 0.49 0.67 0.90 0.96 1.03 1.24 1.43 1.54 1.61 1.68 1.70 1.77 2.02 2.01 1.86 1.90 1.82 1.73 1.63 1.57 1.57 1.65 1.68 1.61 1.77 1.77 1.76
0.20 0.20 0.26 0.27 0.22 0.21 0.20 0.18 0.16 0.20 0.20 0.17 0.30 0.28 0.33 0.44 0.52 0.54 0.62 0.79 0.90 1.04 1.33 1.33 1.57 1.47 1.68 1.74 1.82 1.93 1.94 1.82 1.81 1.72 1.72 1.69 1.60 1.67 1.77 1.80 1.69 1.69 1.74 1.67
0.18 0.14 0.21 0.26 0.21 0.18 0.16 0.17 0.15 0.14 0.16 0.21 0.34 0.24 0.35 0.62 0.73 0.72 0.85 0.91 1.07 1.16 1.29 1.35 1.26 1.15 1.46 1.81 1.87 2.01 1.89 1.79 1.71 1.69 1.66 1.65 1.70 1.74 1.80 1.85 1.77 1.76 1.74 1.63
0.19 0.17 0.24 0.26 0.27 0.29 0.20 0.14 0.19 0.16 0.21 0.21 0.27 0.33 0.45 0.69 0.78 0.74 0.76 1.12 1.12 1.21 1.29 1.31 0.94 1.21 1.43 1.62 1.87 1.87 1.81 1.78 1.71 1.66 1.60 1.62 1.65 1.68 1.74 1.86 1.87 1.85 1.76 1.59
0.24 0.18 0.24 0.27 0.30 0.28 0.23 0.21 0.18 0.24 0.15 0.18 0.25 0.29 0.32 0.52 0.62 0.78 0.89 1.16 1.30 1.49 1.59 1.34 1.05 1.26 1.58 1.85 1.79 1.74 1.73 1.72 1.62 1.53 1.58 1.61 1.63 1.54 1.70 1.89 1.82 1.80 1.69 1.49
0.24 0.23 0.22 0.28 0.27 0.25 0.22 0.22 0.23 0.24 0.24 0.22 0.27 0.30 0.56 0.63 0.70 0.83 0.99 1.19 1.02 0.99 1.48 1.64 1.24 1.52 1.92 1.89 1.75 1.74 1.71 1.71 1.48 1.48 1.48 1.47 1.57 1.43 1.45 1.64 1.71 1.61 1.52 1.42
0.23 0.22 0.19 0.24 0.32 0.31 0.28 0.25 0.24 0.20 0.19 0.29 0.32 0.33 0.61 0.67 0.78 0.77 0.79 0.86 0.82 0.88 1.55 1.78 1.54 1.62 1.51 1.71 1.60 1.60 1.55 1.66 1.47 1.41 1.43 1.40 1.49 1.52 1.50 1.44 1.41 1.40 1.38 1.39
0.26 0.24 0.18 0.23 0.29 0.31 0.30 0.32 0.32 0.29 0.29 0.24 0.26 0.32 0.62 0.66 0.67 0.79 0.77 0.71 0.73 1.07 1.34 1.59 1.62 1.67 1.57 1.51 1.53 1.63 1.66 1.53 1.45 1.39 1.29 1.26 1.37 1.51 1.51 1.48 1.39 1.43 1.39 1.39
0.33 0.27 0.24 0.22 0.28 0.34 0.30 0.32 0.36 0.33 0.28 0.27 0.28 0.36 0.53 0.57 0.59 0.64 0.67 0.77 0.89 1.13 1.37 1.50 1.63 1.56 1.61 1.52 1.54 1.60 1.55 1.47 1.38 1.24 1.16 1.21 1.33 1.44 1.46 1.48 1.49 1.41 1.37 1.30
0.37 0.25 0.26 0.26 0.32 0.32 0.31 0.33 0.36 0.34 0.34 0.29 0.36 0.40 0.50 0.57 0.58 0.62 0.66 0.71 0.97 1.28 1.52 1.48 1.57 1.51 1.43 1.48 1.45 1.52 1.54 1.43 1.28 1.16 1.18 1.26 1.41 1.43 1.46 1.53 1.56 1.51 1.46 1.41
0.53 0.31 0.29 0.23 0.26 0.31 0.29 0.31 0.38 0.38 0.36 0.40 0.48 0.51 0.66 0.69 0.73 0.70 0.69 0.74 0.86 1.07 1.41 1.38 1.40 1.49 1.46 1.40 1.42 1.47 1.38 1.32 1.22 1.19 1.18 1.31 1.39 1.39 1.43 1.55 1.65 1.64 1.58 1.52
0.47 0.41 0.35 0.21 0.28 0.27 0.22 0.29 0.34 0.36 0.39 0.42 0.43 0.55 0.73 0.71 0.74 0.72 0.74 0.90 0.95 1.17 1.23 1.18 1.28 1.21 1.36 1.43 1.43 1.40 1.22 1.26 1.19 1.24 1.24 1.26 1.33 1.35 1.41 1.53 1.61 1.64 1.65 1.68
0.43 0.44 0.43 0.29 0.28 0.19 0.25 0.35 0.39 0.42 0.47 0.56 0.50 0.55 0.65 0.67 0.76 0.80 0.84 0.88 0.96 1.10 1.10 1.13 1.27 1.25 1.45 1.46 1.36 1.48 1.30 1.20 1.22 1.25 1.22 1.22 1.28 1.34 1.40 1.43 1.51 1.60 1.64 1.65
0.45 0.41 0.37 0.30 0.29 0.34 0.33 0.37 0.45 0.43 0.37 0.65 0.56 0.55 0.68 0.79 0.78 0.71 0.83 0.92 1.01 1.09 1.21 1.34 1.30 1.32 1.36 1.37 1.43 1.42 1.29 1.24 1.21 1.24 1.22 1.21 1.31 1.35 1.39 1.37 1.41 1.51 1.56 1.58
0.34 0.42 0.36 0.36 0.31 0.30 0.47 0.54 0.65 0.64 0.38 0.71 0.63 0.61 0.61 0.69 0.60 0.72 1.09 1.19 1.17 1.28 1.28 1.29 1.40 1.36 1.37 1.45 1.45 1.33 1.32 1.29 1.23 1.30 1.29 1.33 1.42 1.45 1.40 1.44 1.44 1.50 1.55 1.58
0.32 0.32 0.33 0.36 0.37 0.43 0.67 0.76 0.72 0.36 0.50 0.90 0.84 0.71 0.68 0.71 0.85 1.01 1.28 1.30 1.64 1.38 1.29 1.35 1.37 1.34 1.42 1.45 1.42 1.33 1.39 1.36 1.36 1.46 1.39 1.40 1.49 1.50 1.52 1.50 1.51 1.52 1.52 1.58
0.48 0.40 0.37 0.36 0.34 0.34 0.83 0.81 0.60 0.79 0.98 1.00 0.96 0.92 0.95 0.99 1.05 1.15 1.31 1.29 1.44 1.49 1.29 1.28 1.21 1.25 1.34 1.41 1.41 1.33 1.35 1.49 1.56 1.59 1.50 1.45 1.52 1.58 1.58 1.57 1.56 1.51 1.50 1.50
0.53 0.62 0.56 0.61 0.64 0.87 0.92 0.90 0.98 1.04 1.02 0.99 1.05 1.09 1.08 1.04 1.06 1.09 1.18 1.17 1.19 1.45 1.27 1.26 1.19 1.20 1.30 1.40 1.45 1.36 1.45 1.62 1.64 1.63 1.59 1.53 1.56 1.66 1.67 1.54 1.52 1.50 1.52 1.50
0.71 0.79 0.67 0.69 0.83 0.87 0.95 1.00 1.00 1.01 0.99 1.11 1.20 1.15 1.14 1.10 1.12 1.08 1.15 1.18 1.37 1.49 1.21 1.23 1.22 1.25 1.28 1.40 1.51 1.54 1.54 1.57 1.60 1.55 1.52 1.51 1.51 1.49 1.50 1.53 1.51 1.52 1.49 1.47
0.68 0.70 0.64 0.69 0.72 0.74 0.81 0.85 1.00 0.99 1.03 1.00 1.10 1.14 1.13 1.14 1.14 1.22 1.07 1.00 1.28 1.42 1.27 1.16 1.10 1.16 1.28 1.41 1.43 1.49 1.48 1.49 1.42 1.43 1.45 1.45 1.45 1.41 1.36 1.40 1.40 1.40 1.45 1.48
0.71 0.64 0.56 0.54 0.71 0.70 0.68 0.82 0.89 0.90 0.88 0.95 1.00 1.07 1.22 1.22 1.26 1.33 1.30 1.30 1.37 1.41 1.32 1.17 1.11 1.09 1.17 1.23 1.30 1.34 1.38 1.40 1.33 1.21 1.18 1.18 1.20 1.25 1.24 1.22 1.23 1.32 1.38 1.41

GFSCGP_prec_pwat_063.txt.gz
Precipitable_Water
0.21 0.17 0.14 0.20 0.30 0.42 0.43 0.48 0.44 0.45 0.54 0.54 0.56 0.59 0.63 0.73 0.74 0.77 0.87 0.98 1.03 1.06 1.14 1.30 1.31 1.35 1.40 1.42 1.46 1.54 1.74 1.86 1.85 1.79 1.70 1.55 1.24 1.37 1.50 1.71 1.81 1.87 1.97 2.00
0.19 0.16 0.17 0.20 0.28 0.41 0.40 0.36 0.35 0.42 0.53 0.55 0.55 0.51 0.56 0.59 0.56 0.64 0.72 0.87 0.99 1.08 1.13 1.24 1.32 1.37 1.41 1.44 1.51 1.50 1.74 1.86 1.85 1.83 1.78 1.65 1.37 1.36 1.37 1.54 1.73 1.82 1.83 1.89
0.15 0.15 0.23 0.20 0.24 0.33 0.34 0.33 0.32 0.35 0.45 0.52 0.50 0.41 0.42 0.53 0.59 0.62 0.72 0.82 1.00 1.02 1.11 1.17 1.27 1.40 1.49 1.57 1.56 1.59 1.82 1.97 1.88 1.84 1.84 1.68 1.55 1.42 1.38 1.47 1.64 1.78 1.86 1.85
0.16 0.20 0.22 0.20 0.20 0.31 0.29 0.30 0.27 0.30 0.37 0.35 0.44 0.30 0.37 0.43 0.49 0.56 0.64 0.75 0.88 0.99 1.13 1.23 1.28 1.37 1.51 1.67 1.73 1.75 1.76 1.90 1.92 1.96 1.80 1.63 1.40 1.27 1.40 1.52 1.66 1.76 1.83 1.82
0.14 0.19 0.21 0.20 0.20 0.28 0.24 0.27 0.26 0.29 0.35 0.38 0.34 0.34 0.32 0.42 0.39 0.46 0.57 0.69 0.81 0.98 1.11 1.25 1.26 1.40 1.60 1.75 1.78 1.83 1.96 1.84 1.88 1.81 1.77 1.58 1.41 1.42 1.57 1.66 1.68 1.71 1.80 1.83
0.17 0.23 0.24 0.22 0.24 0.25 0.26 0.23 0.26 0.31 0.31 0.23 0.27 0.28 0.25 0.32 0.40 0.42 0.54 0.65 0.78 0.94 1.05 1.29 1.39 1.53 1.63 1.75 1.79 2.08 2.35 1.89 1.94 1.85 1.66 1.53 1.45 1.49 1.54 1.64 1.68 1.74 1.79 1.84
0.18 0.17 0.24 0.25 0.22 0.25 0.23 0.19 0.17 0.18 0.18 0.17 0.31 0.30 0.30 0.41 0.47 0.50 0.53 0.66 0.78 0.95 1.08 1.33 1.45 1.41 1.51 1.70 1.80 1.97 1.45 1.75 1.97 1.79 1.65 1.60 1.56 1.56 1.62 1.71 1.77 1.78 1.76 1.86
0.18 0.14 0.17 0.24 0.24 0.23 0.22 0.19 0.16 0.12 0.15 0.19 0.30 0.22 0.27 0.50 0.62 0.61 0.62 0.69 0.84 1.08 1.25 1.44 1.72 1.64 1.45 1.62 1.89 1.87 1.82 1.83 1.83 1.69 1.62 1.59 1.56 1.61 1.58 1.74 1.84 1.83 1.81 1.81
0.18 0.17 0.20 0.23 0.26 0.26 0.22 0.19 0.20 0.16 0.19 0.16 0.19 0.25 0.38 0.58 0.71 0.72 0.76 0.77 0.87 1.03 1.17 1.40 1.58 1.56 1.87 1.72 1.64 1.69 1.74 1.79 1.65 1.61 1.52 1.45 1.51 1.52 1.57 1.84 1.84 1.86 1.87 1.79
0.19 0.18 0.22 0.22 0.26 0.26 0.24 0.26 0.20 0.17 0.13 0.13 0.16 0.24 0.30 0.49 0.64 0.79 0.78 0.73 0.86 1.05 1.18 1.20 1.12 1.33 1.69 1.90 1.73 1.63 1.72 1.62 1.53 1.48 1.46 1.47 1.46 1.38 1.45 1.72 1.82 1.82 1.75 1.60
0.21 0.20 0.20 0.25 0.23 0.23 0.26 0.23 0.21 0.19 0.19 0.17 0.18 0.25 0.52 0.54 0.63 0.72 0.80 0.84 0.94 1.11 1.19 1.12 1.27 1.22 1.63 2.06 1.83 1.63 1.64 1.61 1.47 1.41 1.41 1.43 1.38 1.34 1.42 1.47 1.67 1.62 1.57 1.50
0.21 0.21 0.19 0.21 0.27 0.31 0.29 0.26 0.24 0.18 0.18 0.24 0.25 0.25 0.60 0.68 0.72 0.82 0.92 0.99 1.11 1.16 1.02 1.06 1.15 1.29 1.69 1.89 1.80 1.62 1.66 1.63 1.44 1.38 1.37 1.38 1.35 1.32 1.38 1.40 1.40 1.40 1.33 1.33
0.23 0.19 0.16 0.19 0.24 0.29 0.29 0.30 0.30 0.29 0.26 0.24 0.22 0.26 0.55 0.65 0.71 0.82 0.87 1.01 0.99 0.95 0.97 0.92 0.92 1.17 1.48 1.71 1.73 1.56 1.64 1.54 1.44 1.31 1.31 1.33 1.32 1.37 1.36 1.35 1.41 1.37 1.30 1.32
0.30 0.24 0.19 0.15 0.21 0.28 0.28 0.30 0.34 0.32 0.27 0.28 0.29 0.32 0.42 0.48 0.55 0.68 0.76 0.82 0.87 0.94 0.99 1.08 1.06 1.26 1.64 1.82 1.68 1.54 1.55 1.52 1.42 1.29 1.24 1.22 1.27 1.34 1.33 1.38 1.48 1.49 1.44 1.34
0.36 0.23 0.25 0.25 0.29 0.32 0.31 0.29 0.32 0.32 0.35 0.32 0.32 0.36 0.40 0.43 0.45 0.55 0.72 0.82 0.89 0.96 1.24 1.20 1.28 1.50 1.63 1.64 1.58 1.55 1.47 1.44 1.39 1.22 1.15 1.20 1.32 1.33 1.33 1.35 1.42 1.53 1.55 1.45
0.49 0.32 0.31 0.25 0.30 0.31 0.28 0.30 0.31 0.35 0.39 0.42 0.41 0.40 0.54 0.59 0.63 0.62 0.63 0.65 0.86 1.05 1.21 1.38 1.60 1.68 1.57 1.50 1.50 1.48 1.43 1.39 1.32 1.16 1.18 1.31 1.31 1.32 1.33 1.36 1.38 1.44 1.54 1.58
0.43 0.40 0.34 0.24 0.34 0.27 0.23 0.32 0.33 0.36 0.45 0.46 0.42 0.51 0.58 0.55 0.57 0.59 0.66 0.75 0.77 1.04 1.18 1.36 1.47 1.50 1.48 1.45 1.46 1.37 1.38 1.33 1.18 1.14 1.23 1.28 1.27 1.29 1.32 1.38 1.42 1.43 1.52 1.64
0.39 0.42 0.43 0.32 0.33 0.21 0.31 0.55 0.54 0.45 0.57 0.63 0.61 0.59 0.56 0.54 0.59 0.70 0.80 0.76 0.86 1.04 1.13 1.37 1.48 1.53 1.48 1.45 1.43 1.37 1.27 1.16 1.15 1.17 1.22 1.27 1.27 1.30 1.34 1.37 1.40 1.44 1.48 1.59
0.37 0.38 0.37 0.33 0.31 0.36 0.40 0.51 0.52 0.51 0.47 0.69 0.64 0.63 0.55 0.68 0.74 0.69 0.86 0.84 0.98 1.07 1.34 1.57 1.57 1.58 1.39 1.47 1.40 1.21 1.14 1.14 1.14 1.16 1.23 1.24 1.25 1.29 1.32 1.34 1.38 1.43 1.48 1.54
0.33 0.33 0.33 0.36 0.29 0.25 0.46 0.62 0.76 0.76 0.39 0.77 0.76 0.68 0.60 0.66 0.55 0.67 1.02 1.08 1.09 1.29 1.44 1.55 1.59 1.67 1.53 1.52 1.47 1.29 1.19 1.14 1.11 1.21 1.25 1.23 1.32 1.33 1.33 1.38 1.41 1.44 1.44 1.48
0.28 0.29 0.25 0.30 0.30 0.42 0.61 0.67 0.77 0.43 0.48 0.87 0.87 0.79 0.73 0.64 0.84 1.07 1.24 1.20 1.33 1.49 1.40 1.17 1.38 1.58 1.69 1.66 1.59 1.30 1.28 1.20 1.24 1.29 1.36 1.37 1.44 1.45 1.47 1.49 1.48 1.47 1.45 1.42
0.43 0.41 0.38 0.37 0.28 0.26 0.69 0.68 0.55 0.82 0.96 0.94 0.94 0.93 0.84 0.96 1.09 1.20 1.24 1.28 1.40 1.30 1.34 1.36 1.50 1.33 1.51 1.60 1.54 1.41 1.36 1.49 1.41 1.37 1.51 1.55 1.50 1.52 1.51 1.53 1.54 1.55 1.52 1.46
0.49 0.59 0.54 0.61 0.55 0.78 0.82 0.78 0.87 0.93 0.86 0.87 0.94 1.04 1.08 0.97 1.01 1.12 1.27 1.32 1.36 1.29 1.25 1.29 1.28 1.30 1.29 1.55 1.61 1.53 1.48 1.55 1.48 1.52 1.57 1.63 1.59 1.57 1.63 1.58 1.46 1.42 1.46 1.42
0.72 0.77 0.65 0.67 0.71 0.76 0.82 0.82 0.87 0.94 0.92 0.93 0.93 0.93 1.02 1.06 1.10 1.17 1.28 1.27 1.23 1.20 1.32 1.31 1.30 1.25 1.36 1.48 1.58 1.56 1.66 1.62 1.58 1.50 1.57 1.63 1.61 1.52 1.55 1.50 1.45 1.42 1.38 1.35
0.70 0.71 0.67 0.63 0.69 0.75 0.75 0.76 0.81 0.85 0.91 0.92 0.90 0.88 0.94 1.02 1.04 1.09 1.19 1.25 1.29 1.36 1.42 1.41 1.38 1.39 1.35 1.53 1.63 1.68 1.66 1.67 1.51 1.46 1.44 1.49 1.47 1.47 1.43 1.40 1.46 1.46 1.45 1.41
0.71 0.64 0.55 0.53 0.67 0.63 0.63 0.73 0.82 0.76 0.75 0.85 0.85 0.85 0.87 0.89 0.94 1.07 1.14 1.20 1.21 1.20 1.33 1.32 1.28 1.29 1.40 1.46 1.62 1.68 1.68 1.60 1.50 1.43 1.40 1.41 1.38 1.34 1.29 1.26 1.26 1.36 1.36 1.33

GFSCGP_prec_pwat_069.txt.gz
Precipitable_Water
0.23 0.20 0.21 0.25 0.27 0.27 0.29 0.30 0.31 0.38 0.45 0.48 0.45 0.47 0.52 0.69 0.77 0.76 0.85 0.89 0.99 1.05 1.15 1.33 1.42 1.44 1.44 1.51 1.59 1.67 1.71 1.94 2.06 2.00 1.81 1.77 1.66 1.57 1.52 1.59 1.74 1.92 2.13 2.21
0.18 0.15 0.21 0.26 0.25 0.24 0.22 0.27 0.32 0.44 0.47 0.44 0.40 0.40 0.50 0.61 0.61 0.61 0.73 0.79 0.87 1.03 1.10 1.26 1.37 1.41 1.47 1.61 1.72 1.80 1.84 1.97 2.24 2.14 2.03 1.91 1.81 1.63 1.49 1.59 1.61 1.75 1.86 1.96
0.14 0.16 0.20 0.19 0.19 0.18 0.19 0.19 0.26 0.39 0.47 0.45 0.39 0.33 0.42 0.47 0.50 0.53 0.63 0.76 0.82 0.93 0.99 1.18 1.31 1.40 1.57 1.67 1.80 1.92 1.88 1.93 1.98 2.04 2.09 2.01 1.91 1.69 1.48 1.48 1.52 1.62 1.78 1.81
0.17 0.18 0.17 0.20 0.17 0.18 0.16 0.20 0.23 0.33 0.38 0.32 0.38 0.23 0.38 0.38 0.42 0.46 0.48 0.61 0.73 0.89 1.03 1.15 1.30 1.44 1.60 1.67 1.78 1.67 1.66 1.50 1.70 1.96 1.86 1.84 1.76 1.62 1.52 1.51 1.60 1.62 1.74 1.79
0.16 0.15 0.13 0.15 0.18 0.22 0.18 0.22 0.23 0.31 0.34 0.33 0.31 0.29 0.34 0.36 0.36 0.38 0.45 0.52 0.59 0.70 0.81 0.97 1.19 1.46 1.55 1.61 1.62 1.54 1.61 1.40 1.51 1.58 1.71 1.79 1.72 1.73 1.61 1.59 1.63 1.69 1.77 1.89
0.21 0.21 0.19 0.18 0.22 0.22 0.24 0.23 0.24 0.30 0.35 0.25 0.30 0.30 0.23 0.30 0.38 0.39 0.50 0.53 0.55 0.62 0.74 0.94 1.23 1.47 1.55 1.65 1.63 1.54 1.61 1.43 1.51 1.61 1.64 1.70 1.73 1.63 1.51 1.50 1.64 1.69 1.76 1.85
0.21 0.20 0.20 0.22 0.19 0.22 0.22 0.21 0.17 0.18 0.22 0.21 0.28 0.24 0.23 0.30 0.40 0.45 0.47 0.54 0.55 0.71 0.78 0.93 1.12 1.30 1.50 1.77 1.82 1.85 1.80 1.63 1.61 1.66 1.54 1.57 1.69 1.55 1.47 1.53 1.60 1.73 1.80 1.87
0.18 0.17 0.19 0.20 0.20 0.20 0.21 0.22 0.17 0.15 0.18 0.21 0.25 0.18 0.21 0.34 0.49 0.54 0.54 0.55 0.64 0.76 0.85 1.05 1.22 1.35 1.47 1.68 1.45 1.58 1.59 1.65 1.42 1.55 1.47 1.54 1.63 1.51 1.55 1.61 1.78 1.80 1.85 1.86
0.17 0.18 0.25 0.25 0.22 0.25 0.23 0.21 0.24 0.20 0.21 0.17 0.18 0.19 0.22 0.26 0.33 0.44 0.51 0.60 0.67 0.76 0.91 1.02 1.18 1.37 1.60 1.69 1.55 1.69 1.55 1.60 1.46 1.51 1.61 1.61 1.54 1.51 1.52 1.64 1.75 1.86 1.94 1.91
0.20 0.17 0.21 0.25 0.27 0.24 0.24 0.28 0.21 0.21 0.17 0.15 0.17 0.18 0.16 0.24 0.35 0.48 0.52 0.66 0.76 0.86 0.93 1.03 1.14 1.31 1.42 1.55 1.69 1.80 1.76 1.68 1.63 1.60 1.59 1.50 1.44 1.47 1.48 1.53 1.60 1.82 1.86 1.91
0.20 0.19 0.20 0.23 0.23 0.22 0.22 0.22 0.25 0.24 0.22 0.17 0.16 0.18 0.23 0.29 0.43 0.52 0.61 0.72 0.87 0.97 1.01 1.05 1.17 1.25 1.31 1.47 1.60 1.73 1.81 1.78 1.65 1.55 1.45 1.37 1.32 1.25 1.34 1.39 1.50 1.53 1.67 1.62
0.21 0.19 0.16 0.17 0.24 0.27 0.25 0.24 0.25 0.20 0.20 0.22 0.22 0.17 0.26 0.32 0.43 0.53 0.60 0.77 0.92 0.94 0.97 1.14 1.12 1.10 1.09 1.22 1.52 1.68 1.73 1.70 1.63 1.48 1.37 1.33 1.29 1.25 1.28 1.32 1.40 1.49 1.37 1.44
0.24 0.19 0.15 0.17 0.21 0.25 0.23 0.24 0.25 0.27 0.27 0.23 0.21 0.21 0.39 0.47 0.48 0.56 0.63 0.82 0.90 0.89 0.99 1.07 1.05 1.03 1.14 1.24 1.26 1.38 1.64 1.63 1.50 1.38 1.31 1.24 1.20 1.19 1.29 1.33 1.34 1.37 1.40 1.42
0.31 0.23 0.20 0.16 0.18 0.21 0.22 0.25 0.27 0.29 0.25 0.26 0.26 0.28 0.37 0.46 0.46 0.50 0.61 0.83 0.90 0.95 1.03 1.03 1.10 1.09 1.14 1.27 1.26 1.21 1.41 1.47 1.46 1.43 1.32 1.25 1.23 1.21 1.29 1.29 1.33 1.34 1.39 1.41
0.33 0.26 0.26 0.24 0.23 0.24 0.25 0.26 0.31 0.31 0.34 0.30 0.34 0.35 0.45 0.56 0.56 0.57 0.61 0.73 0.87 0.94 1.06 0.97 1.10 1.12 1.16 1.27 1.40 1.45 1.48 1.57 1.58 1.47 1.35 1.31 1.32 1.30 1.32 1.28 1.29 1.35 1.37 1.43
0.50 0.33 0.30 0.26 0.33 0.30 0.30 0.33 0.34 0.36 0.36 0.38 0.39 0.41 0.67 0.70 0.68 0.62 0.65 0.70 0.78 0.94 1.04 0.98 1.08 1.13 1.18 1.34 1.49 1.58 1.69 1.71 1.67 1.53 1.37 1.40 1.34 1.31 1.31 1.26 1.26 1.33 1.35 1.37
0.39 0.43 0.34 0.25 0.35 0.30 0.28 0.39 0.40 0.48 0.54 0.53 0.40 0.53 0.65 0.59 0.60 0.61 0.66 0.70 0.74 0.86 0.93 0.98 1.14 1.22 1.23 1.45 1.65 1.64 1.71 1.75 1.64 1.53 1.41 1.33 1.30 1.30 1.33 1.27 1.30 1.30 1.34 1.37
0.38 0.39 0.42 0.34 0.35 0.24 0.46 0.66 0.61 0.55 0.60 0.64 0.61 0.61 0.63 0.61 0.65 0.76 0.80 0.74 0.77 0.81 0.87 1.01 1.33 1.44 1.42 1.53 1.65 1.47 1.52 1.71 1.54 1.42 1.33 1.27 1.33 1.30 1.35 1.30 1.28 1.31 1.40 1.41
0.39 0.38 0.36 0.34 0.32 0.41 0.54 0.63 0.63 0.56 0.54 0.69 0.62 0.64 0.68 0.69 0.64 0.66 0.88 0.89 0.84 0.94 0.98 1.24 1.53 1.55 1.58 1.57 1.57 1.46 1.53 1.54 1.58 1.43 1.25 1.30 1.36 1.30 1.31 1.30 1.29 1.39 1.40 1.45
0.37 0.38 0.34 0.38 0.32 0.30 0.49 0.68 0.83 0.79 0.46 0.74 0.75 0.71 0.66 0.70 0.47 0.61 0.88 1.00 1.00 1.08 1.20 1.39 1.60 1.57 1.51 1.51 1.54 1.49 1.44 1.40 1.39 1.39 1.29 1.39 1.44 1.35 1.28 1.33 1.35 1.47 1.52 1.48
0.36 0.33 0.27 0.30 0.32 0.42 0.63 0.72 0.84 0.44 0.46 0.78 0.82 0.81 0.77 0.65 0.74 0.87 1.02 1.08 1.14 1.24 1.39 1.61 1.66 1.50 1.43 1.49 1.45 1.32 1.32 1.37 1.40 1.34 1.27 1.36 1.48 1.45 1.36 1.38 1.45 1.52 1.56 1.57
0.41 0.37 0.33 0.31 0.29 0.30 0.70 0.74 0.57 0.69 0.80 0.79 0.80 0.81 0.77 0.82 0.87 0.90 1.00 1.12 1.18 1.18 1.33 1.50 1.53 1.42 1.45 1.44 1.38 1.32 1.32 1.43 1.46 1.43 1.39 1.36 1.44 1.53 1.47 1.46 1.54 1.57 1.60 1.58
0.47 0.53 0.50 0.51 0.46 0.69 0.73 0.69 0.78 0.80 0.76 0.77 0.77 0.79 0.78 0.79 0.83 0.90 0.94 1.04 1.21 1.21 1.27 1.30 1.25 1.23 1.37 1.44 1.42 1.34 1.34 1.40 1.47 1.43 1.36 1.33 1.46 1.57 1.57 1.53 1.53 1.51 1.58 1.53
0.69 0.77 0.61 0.57 0.67 0.66 0.68 0.75 0.80 0.81 0.80 0.86 0.89 0.86 0.87 0.80 0.80 0.81 0.85 0.94 1.05 1.17 1.25 1.31 1.31 1.31 1.34 1.40 1.47 1.45 1.45 1.50 1.53 1.47 1.41 1.43 1.43 1.55 1.60 1.50 1.50 1.53 1.49 1.53
0.70 0.71 0.63 0.61 0.66 0.66 0.68 0.73 0.77 0.78 0.84 0.84 0.84 0.80 0.77 0.82 0.80 0.80 0.80 0.86 0.93 1.03 1.19 1.30 1.29 1.29 1.32 1.40 1.41 1.45 1.49 1.44 1.43 1.53 1.48 1.45 1.43 1.45 1.51 1.63 1.66 1.63 1.62 1.57
0.68 0.64 0.58 0.55 0.66 0.62 0.65 0.76 0.82 0.78 0.82 0.90 0.85 0.85 0.92 0.92 0.83 0.83 0.79 0.85 0.89 0.95 1.09 1.16 1.22 1.27 1.30 1.35 1.38 1.46 1.53 1.57 1.51 1.56 1.56 1.52 1.49 1.50 1.57 1.58 1.55 1.59 1.61 1.56

GFSCGP_prec_pwat_072.txt.gz
Precipitable_Water
0.23 0.20 0.19 0.22 0.26 0.29 0.31 0.30 0.30 0.37 0.48 0.49 0.42 0.39 0.46 0.52 0.67 0.73 0.81 0.93 0.97 0.99 1.18 1.34 1.43 1.50 1.59 1.62 1.72 1.80 1.80 1.94 2.01 2.03 2.15 2.07 1.85 1.83 1.72 1.60 1.68 1.86 2.03 2.09
0.19 0.14 0.21 0.26 0.28 0.27 0.25 0.23 0.24 0.31 0.40 0.40 0.44 0.41 0.41 0.46 0.54 0.62 0.67 0.83 0.90 1.00 1.12 1.23 1.37 1.49 1.56 1.69 1.78 1.80 1.83 1.80 1.74 1.85 1.69 2.13 1.99 1.87 1.76 1.66 1.64 1.71 1.88 2.01
0.17 0.16 0.22 0.22 0.21 0.20 0.21 0.21 0.21 0.24 0.41 0.46 0.46 0.38 0.37 0.47 0.50 0.54 0.56 0.67 0.83 0.89 0.97 1.13 1.28 1.42 1.56 1.70 1.88 1.91 1.78 1.64 1.60 1.79 1.84 1.94 1.92 1.87 1.74 1.63 1.57 1.63 1.72 1.86
0.20 0.18 0.20 0.19 0.16 0.18 0.16 0.19 0.20 0.19 0.24 0.30 0.49 0.30 0.36 0.43 0.41 0.45 0.50 0.55 0.65 0.79 0.89 1.06 1.24 1.38 1.57 1.85 1.94 2.02 1.80 1.73 1.65 1.75 1.72 1.73 1.63 1.63 1.70 1.63 1.64 1.65 1.68 1.73
0.21 0.20 0.18 0.16 0.15 0.21 0.18 0.22 0.22 0.21 0.22 0.30 0.37 0.35 0.34 0.42 0.38 0.42 0.52 0.54 0.58 0.68 0.86 1.00 1.16 1.44 1.70 1.76 1.70 1.72 1.69 1.74 1.55 1.62 1.61 1.53 1.55 1.74 1.74 1.66 1.67 1.74 1.78 1.78
0.23 0.26 0.21 0.17 0.16 0.20 0.23 0.21 0.23 0.24 0.21 0.23 0.32 0.35 0.27 0.37 0.39 0.40 0.48 0.57 0.63 0.70 0.80 0.95 1.25 1.49 1.57 1.63 1.60 1.50 1.16 1.43 1.49 1.59 1.66 1.50 1.43 1.56 1.60 1.58 1.64 1.82 1.90 1.93
0.24 0.22 0.22 0.22 0.19 0.22 0.22 0.20 0.17 0.18 0.17 0.19 0.38 0.33 0.29 0.35 0.39 0.37 0.46 0.55 0.67 0.75 0.83 0.94 1.19 1.37 1.43 1.49 1.58 1.50 1.51 1.46 1.69 1.72 1.72 1.53 1.55 1.56 1.58 1.59 1.68 1.72 1.90 1.89
0.22 0.20 0.23 0.22 0.19 0.20 0.22 0.20 0.18 0.17 0.18 0.23 0.34 0.24 0.28 0.36 0.32 0.43 0.50 0.64 0.68 0.85 0.95 1.04 1.21 1.35 1.40 1.47 1.54 1.51 1.39 1.62 1.77 1.67 1.64 1.48 1.51 1.52 1.52 1.63 1.74 1.82 1.83 1.88
0.23 0.23 0.27 0.24 0.22 0.22 0.24 0.21 0.25 0.23 0.23 0.21 0.24 0.26 0.26 0.26 0.27 0.33 0.48 0.60 0.67 0.89 1.02 1.16 1.22 1.40 1.41 1.49 1.52 1.49 1.55 1.70 1.74 1.67 1.64 1.49 1.46 1.42 1.46 1.55 1.74 1.88 1.92 1.92
0.25 0.21 0.25 0.26 0.27 0.25 0.24 0.30 0.22 0.21 0.18 0.19 0.20 0.22 0.21 0.25 0.28 0.45 0.62 0.65 0.79 0.91 1.05 1.18 1.29 1.43 1.39 1.40 1.46 1.54 1.73 1.83 1.78 1.70 1.73 1.46 1.42 1.39 1.43 1.54 1.54 1.71 1.90 1.89
0.25 0.23 0.24 0.25 0.24 0.24 0.24 0.21 0.23 0.26 0.29 0.22 0.20 0.22 0.32 0.24 0.41 0.57 0.70 0.81 0.87 0.95 1.07 1.18 1.21 1.33 1.33 1.37 1.52 1.65 1.80 1.80 1.75 1.76 1.54 1.43 1.35 1.27 1.38 1.43 1.48 1.51 1.55 1.69
0.23 0.23 0.22 0.24 0.27 0.30 0.30 0.26 0.24 0.21 0.24 0.23 0.22 0.21 0.43 0.34 0.44 0.56 0.70 0.80 0.94 1.02 1.11 1.14 1.22 1.23 1.23 1.31 1.45 1.55 1.66 1.76 1.73 1.64 1.45 1.40 1.26 1.26 1.35 1.40 1.43 1.50 1.45 1.41
0.26 0.20 0.20 0.21 0.25 0.25 0.23 0.25 0.29 0.30 0.31 0.27 0.23 0.24 0.50 0.44 0.50 0.55 0.61 0.80 0.88 0.95 1.00 1.17 1.16 1.14 1.21 1.30 1.48 1.60 1.67 1.68 1.69 1.50 1.40 1.32 1.25 1.26 1.33 1.39 1.40 1.42 1.39 1.38
0.35 0.27 0.22 0.19 0.22 0.23 0.22 0.24 0.26 0.27 0.24 0.24 0.28 0.35 0.51 0.49 0.53 0.59 0.63 0.81 0.92 0.95 1.04 1.10 1.08 1.13 1.24 1.25 1.39 1.50 1.49 1.60 1.62 1.46 1.37 1.29 1.25 1.28 1.32 1.35 1.35 1.37 1.40 1.40
0.38 0.31 0.31 0.26 0.29 0.27 0.26 0.25 0.26 0.25 0.28 0.33 0.33 0.38 0.53 0.54 0.58 0.64 0.69 0.77 0.91 0.97 1.00 1.05 1.07 1.14 1.20 1.28 1.27 1.36 1.53 1.64 1.57 1.50 1.38 1.31 1.32 1.32 1.33 1.30 1.30 1.34 1.42 1.44
0.51 0.42 0.35 0.29 0.29 0.26 0.24 0.28 0.30 0.31 0.36 0.40 0.41 0.49 0.67 0.69 0.70 0.72 0.72 0.75 0.85 0.96 1.00 1.08 1.03 1.20 1.18 1.24 1.41 1.48 1.55 1.63 1.66 1.53 1.41 1.38 1.37 1.32 1.25 1.26 1.29 1.36 1.40 1.45
0.43 0.48 0.39 0.32 0.34 0.33 0.34 0.38 0.34 0.43 0.48 0.52 0.43 0.68 0.69 0.64 0.64 0.71 0.77 0.78 0.78 0.88 1.07 1.14 1.07 1.15 1.19 1.25 1.40 1.54 1.67 1.76 1.65 1.62 1.49 1.41 1.39 1.29 1.20 1.24 1.29 1.34 1.40 1.44
0.42 0.42 0.43 0.44 0.36 0.24 0.58 0.64 0.60 0.58 0.59 0.64 0.68 0.68 0.69 0.66 0.69 0.77 0.87 0.83 0.77 0.79 0.91 1.04 1.08 1.15 1.29 1.35 1.49 1.67 1.63 1.56 1.62 1.63 1.52 1.52 1.33 1.26 1.21 1.23 1.26 1.33 1.45 1.45
0.42 0.39 0.38 0.34 0.33 0.49 0.53 0.58 0.58 0.54 0.55 0.68 0.63 0.65 0.66 0.69 0.68 0.81 0.95 1.02 0.98 1.01 1.09 1.09 1.16 1.37 1.49 1.37 1.52 1.63 1.52 1.41 1.56 1.49 1.47 1.47 1.28 1.27 1.24 1.20 1.23 1.38 1.47 1.53
0.41 0.40 0.36 0.37 0.33 0.33 0.57 0.65 0.78 0.75 0.52 0.73 0.74 0.71 0.68 0.70 0.53 0.81 0.91 1.05 1.08 1.11 1.12 1.19 1.47 1.69 1.63 1.66 1.62 1.60 1.48 1.41 1.47 1.47 1.51 1.49 1.37 1.37 1.34 1.28 1.28 1.39 1.52 1.53
0.37 0.33 0.29 0.31 0.33 0.51 0.67 0.72 0.81 0.49 0.61 0.85 0.82 0.80 0.77 0.70 0.77 0.88 0.98 1.02 1.18 1.18 1.21 1.41 1.64 1.66 1.67 1.72 1.70 1.56 1.49 1.46 1.53 1.51 1.50 1.44 1.46 1.47 1.45 1.46 1.40 1.40 1.47 1.57
0.42 0.37 0.30 0.31 0.31 0.35 0.70 0.76 0.65 0.81 0.90 0.83 0.82 0.82 0.80 0.83 0.85 0.87 0.89 0.97 1.08 1.20 1.27 1.36 1.48 1.68 1.76 1.79 1.71 1.59 1.53 1.60 1.58 1.55 1.54 1.50 1.52 1.55 1.50 1.47 1.48 1.46 1.50 1.52
0.46 0.54 0.58 0.51 0.55 0.69 0.75 0.72 0.86 0.90 0.86 0.85 0.84 0.88 0.86 0.81 0.79 0.83 0.85 0.92 1.01 1.13 1.23 1.37 1.37 1.43 1.50 1.70 1.67 1.53 1.58 1.55 1.61 1.54 1.50 1.47 1.54 1.58 1.57 1.55 1.52 1.54 1.55 1.57
0.70 0.76 0.65 0.63 0.70 0.66 0.71 0.78 0.80 0.83 0.82 0.86 0.85 0.83 0.84 0.83 0.87 0.84 0.87 0.87 0.89 1.04 1.15 1.26 1.34 1.31 1.32 1.41 1.50 1.50 1.59 1.66 1.62 1.59 1.56 1.59 1.58 1.54 1.61 1.67 1.69 1.61 1.48 1.45
0.72 0.73 0.68 0.65 0.68 0.67 0.71 0.75 0.77 0.81 0.86 0.87 0.91 0.92 0.91 0.90 0.86 0.85 0.84 0.84 0.86 0.89 0.99 1.14 1.28 1.36 1.38 1.43 1.43 1.50 1.54 1.54 1.55 1.60 1.61 1.64 1.60 1.59 1.63 1.71 1.69 1.54 1.59 1.65
0.71 0.69 0.64 0.62 0.74 0.73 0.77 0.87 0.90 0.85 0.84 0.92 0.95 0.95 0.98 0.96 0.93 0.93 0.92 0.97 0.99 1.00 1.02 1.00 1.06 1.18 1.34 1.40 1.42 1.49 1.55 1.57 1.54 1.51 1.56 1.66 1.62 1.63 1.64 1.63 1.65 1.70 1.72 1.72

GFSCGP_prec_pwat_075.txt.gz
Precipitable_Water
0.26 0.19 0.18 0.22 0.24 0.27 0.29 0.31 0.32 0.41 0.45 0.43 0.42 0.50 0.48 0.49 0.54 0.65 0.77 0.88 1.01 1.10 1.21 1.31 1.33 1.43 1.51 1.65 1.80 1.85 1.88 2.02 2.12 2.13 1.99 1.88 1.81 2.02 1.98 1.84 1.85 1.79 1.99 2.04
0.22 0.19 0.21 0.24 0.26 0.26 0.28 0.27 0.27 0.29 0.32 0.35 0.38 0.38 0.51 0.51 0.46 0.55 0.69 0.79 0.93 1.05 1.14 1.26 1.36 1.45 1.47 1.59 1.77 1.84 1.94 1.98 2.01 1.82 1.77 1.66 1.56 1.98 1.99 1.85 1.86 1.76 1.82 1.99
0.21 0.21 0.22 0.19 0.21 0.23 0.23 0.22 0.23 0.25 0.27 0.31 0.40 0.38 0.46 0.50 0.50 0.54 0.57 0.61 0.81 0.95 1.05 1.15 1.33 1.42 1.48 1.63 1.75 1.82 1.90 1.73 1.55 1.73 1.69 1.60 1.64 1.84 1.88 1.83 1.80 1.75 1.73 1.83
0.25 0.26 0.23 0.19 0.20 0.22 0.18 0.22 0.21 0.20 0.19 0.18 0.32 0.29 0.46 0.48 0.46 0.47 0.57 0.66 0.69 0.85 0.98 1.14 1.31 1.38 1.46 1.68 1.89 1.81 1.71 1.51 1.58 1.74 1.64 1.67 1.58 1.67 1.85 1.77 1.75 1.78 1.76 1.70
0.28 0.25 0.22 0.17 0.20 0.21 0.17 0.22 0.21 0.20 0.20 0.21 0.21 0.31 0.40 0.47 0.43 0.44 0.62 0.65 0.69 0.72 0.89 1.05 1.26 1.39 1.56 1.77 1.69 1.64 1.66 1.53 1.55 1.72 1.70 1.73 1.61 1.64 1.82 1.84 1.72 1.76 1.87 1.88
0.31 0.31 0.26 0.22 0.22 0.19 0.19 0.21 0.21 0.23 0.21 0.18 0.22 0.27 0.34 0.47 0.43 0.57 0.52 0.64 0.74 0.68 0.80 1.01 1.24 1.47 1.59 1.74 1.60 1.58 1.60 1.52 1.60 1.55 1.76 1.66 1.41 1.51 1.71 1.77 1.63 1.75 1.89 2.03
0.27 0.28 0.27 0.26 0.21 0.20 0.16 0.19 0.17 0.17 0.19 0.18 0.23 0.29 0.34 0.48 0.45 0.47 0.49 0.61 0.64 0.72 0.80 1.00 1.15 1.40 1.54 1.57 1.53 1.63 1.54 1.54 1.64 1.61 1.66 1.67 1.48 1.58 1.69 1.70 1.61 1.69 1.79 1.92
0.22 0.23 0.27 0.27 0.21 0.21 0.21 0.20 0.18 0.18 0.21 0.25 0.30 0.28 0.36 0.44 0.44 0.39 0.42 0.64 0.62 0.82 0.93 1.01 1.23 1.44 1.51 1.51 1.55 1.60 1.50 1.58 1.67 1.63 1.68 1.72 1.62 1.70 1.70 1.57 1.63 1.73 1.82 1.84
0.23 0.25 0.32 0.30 0.26 0.22 0.22 0.23 0.23 0.21 0.24 0.24 0.30 0.41 0.44 0.38 0.34 0.32 0.40 0.75 0.67 0.86 0.97 1.08 1.33 1.39 1.42 1.42 1.49 1.46 1.46 1.54 1.78 1.72 1.79 1.64 1.53 1.62 1.49 1.60 1.64 1.72 1.90 1.89
0.25 0.26 0.33 0.32 0.29 0.25 0.21 0.27 0.25 0.22 0.20 0.22 0.25 0.24 0.26 0.33 0.34 0.63 0.81 0.80 0.81 0.97 1.13 1.19 1.30 1.35 1.37 1.38 1.45 1.54 1.59 1.70 1.95 1.88 1.83 1.69 1.57 1.47 1.52 1.54 1.50 1.55 1.71 1.80
0.27 0.29 0.29 0.32 0.26 0.23 0.23 0.21 0.25 0.29 0.25 0.24 0.22 0.26 0.40 0.42 0.55 0.64 0.76 0.89 0.92 1.03 1.19 1.27 1.29 1.32 1.30 1.37 1.45 1.49 1.58 1.85 1.90 1.83 1.79 1.49 1.39 1.38 1.41 1.42 1.43 1.43 1.44 1.51
0.28 0.27 0.27 0.30 0.29 0.30 0.30 0.27 0.25 0.24 0.24 0.30 0.32 0.30 0.53 0.53 0.54 0.57 0.82 0.92 1.01 1.10 1.21 1.16 1.21 1.23 1.29 1.36 1.41 1.43 1.42 1.38 1.68 1.67 1.57 1.39 1.29 1.31 1.32 1.33 1.38 1.44 1.44 1.48
0.27 0.24 0.26 0.27 0.29 0.29 0.27 0.29 0.33 0.29 0.28 0.27 0.28 0.37 0.67 0.63 0.60 0.57 0.81 0.93 1.00 1.10 1.14 1.15 1.13 1.15 1.23 1.25 1.33 1.32 1.42 1.58 1.61 1.59 1.44 1.37 1.25 1.30 1.25 1.30 1.36 1.45 1.43 1.41
0.38 0.29 0.25 0.22 0.25 0.29 0.29 0.25 0.29 0.29 0.31 0.30 0.28 0.38 0.66 0.64 0.63 0.60 0.72 0.96 0.91 1.00 1.15 1.12 1.11 1.14 1.26 1.30 1.35 1.38 1.44 1.63 1.63 1.54 1.44 1.31 1.27 1.29 1.24 1.29 1.34 1.34 1.40 1.40
0.39 0.31 0.30 0.30 0.29 0.32 0.29 0.29 0.26 0.24 0.28 0.28 0.37 0.62 0.95 0.78 0.65 0.65 0.71 0.94 1.01 1.03 1.11 1.15 1.07 1.15 1.28 1.29 1.41 1.43 1.44 1.51 1.61 1.57 1.44 1.37 1.31 1.32 1.30 1.27 1.30 1.35 1.37 1.40
0.51 0.40 0.41 0.39 0.32 0.32 0.29 0.31 0.31 0.27 0.28 0.28 0.35 0.57 0.84 0.92 0.87 0.75 0.78 0.86 0.98 1.08 1.14 1.22 1.16 1.20 1.26 1.28 1.29 1.42 1.41 1.53 1.60 1.62 1.56 1.54 1.48 1.38 1.32 1.26 1.26 1.32 1.38 1.39
0.51 0.52 0.51 0.30 0.31 0.31 0.26 0.25 0.26 0.32 0.32 0.36 0.49 0.94 0.91 0.77 0.81 0.83 0.84 0.82 0.83 0.97 1.14 1.21 1.27 1.22 1.31 1.32 1.31 1.32 1.51 1.69 1.67 1.65 1.58 1.59 1.55 1.51 1.44 1.30 1.27 1.27 1.38 1.43
0.43 0.46 0.47 0.44 0.46 0.26 0.49 0.60 0.45 0.49 0.66 0.66 0.84 0.89 0.94 0.79 0.90 0.93 1.00 0.92 0.96 0.97 0.97 1.08 1.22 1.25 1.31 1.46 1.43 1.53 1.64 1.72 1.70 1.61 1.59 1.58 1.56 1.53 1.47 1.31 1.27 1.28 1.37 1.37
0.41 0.42 0.38 0.33 0.43 0.55 0.59 0.64 0.63 0.61 0.64 0.78 0.82 0.80 0.81 0.83 0.94 0.92 1.04 1.04 1.04 1.06 1.03 1.10 1.28 1.25 1.28 1.35 1.51 1.52 1.64 1.76 1.68 1.57 1.64 1.62 1.65 1.55 1.48 1.36 1.32 1.35 1.33 1.35
0.40 0.43 0.38 0.37 0.32 0.36 0.67 0.78 0.78 0.76 0.66 0.85 0.88 0.81 0.76 0.77 0.69 0.97 1.08 1.09 1.05 1.05 1.06 1.12 1.20 1.44 1.56 1.58 1.62 1.63 1.66 1.68 1.62 1.55 1.67 1.68 1.66 1.53 1.48 1.48 1.49 1.47 1.40 1.38
0.34 0.33 0.31 0.31 0.32 0.42 0.87 0.85 0.80 0.41 0.68 1.05 0.88 0.81 0.77 0.70 0.82 0.99 0.97 0.94 1.03 1.08 1.11 1.20 1.30 1.38 1.57 1.78 1.86 1.63 1.70 1.73 1.77 1.70 1.75 1.68 1.63 1.55 1.58 1.60 1.57 1.51 1.45 1.45
0.45 0.42 0.34 0.34 0.33 0.32 0.82 0.83 0.68 0.88 0.96 0.98 1.01 0.93 0.87 0.90 0.90 0.91 0.92 0.91 0.95 0.98 1.11 1.26 1.28 1.28 1.47 1.72 1.98 1.95 1.76 1.93 1.93 1.81 1.73 1.64 1.63 1.62 1.61 1.63 1.65 1.57 1.53 1.50
0.43 0.52 0.61 0.60 0.60 0.80 0.86 0.85 0.93 1.01 0.96 0.98 0.98 0.97 0.95 0.94 0.90 0.88 0.87 0.84 0.85 0.94 1.04 1.17 1.23 1.31 1.51 1.64 1.42 1.47 1.88 1.92 1.93 1.81 1.66 1.62 1.64 1.61 1.63 1.61 1.61 1.59 1.59 1.55
0.75 0.85 0.53 0.68 0.76 0.75 0.79 0.84 0.85 0.90 0.92 0.96 0.98 0.96 0.97 0.92 0.90 0.88 0.88 0.84 0.83 0.86 0.89 1.01 1.13 1.22 1.37 1.55 1.65 1.71 1.72 1.73 1.76 1.66 1.65 1.66 1.58 1.59 1.63 1.66 1.66 1.68 1.70 1.67
0.79 0.87 0.80 0.76 0.76 0.75 0.80 0.82 0.83 0.85 0.90 0.91 0.93 0.93 0.91 0.93 0.91 0.91 0.92 0.90 0.93 0.97 0.98 0.96 0.97 1.06 1.27 1.45 1.48 1.56 1.60 1.60 1.50 1.53 1.56 1.60 1.61 1.61 1.62 1.64 1.67 1.70 1.76 1.73
0.89 0.78 0.67 0.68 0.79 0.85 0.84 0.85 0.87 0.83 0.80 0.81 0.85 0.88 0.94 0.96 0.92 0.98 0.97 1.01 1.01 1.03 1.06 1.04 1.04 1.06 1.06 1.15 1.35 1.46 1.53 1.56 1.51 1.48 1.53 1.61 1.64 1.60 1.69 1.67 1.57 1.73 1.73 1.74